Tracking 18980 objects as of 18-Feb-2018
HD Live streaming from Space Station
objects crossing your sky now

COSMOS 449

Track COSMOS 449 now!
10-day predictions
COSMOS 449 is classified as:


NORAD ID: 5552
Int'l Code: 1971-086F
Perigee: 1,490.2 km
Apogee: 1,548.4 km
Inclination: 74.0 °
Period: 116.3 minutes
Semi major axis: 7890 km
RCS: 0.713 m2 (medium)
Launch date: October 13, 1971
Source: Commonwealth of Independent States (former USSR) (CIS)
Launch site: PLESETSK MISSILE AND SPACE COMPLEX (PKMTR)
aabbcc
Your satellite tracking list
Your tracking list is empty




NASA's NSSDC Master Catalog

Two Line Element Set (TLE):
1 05552U 71086F   18048.82240661 -.00000020  00000-0 -35613-4 0  9995
2 05552  74.0287 172.2116 0036889 132.9005 341.7227 12.38691673 96121
Source of the keplerian elements: AFSPC